Regional Weather Roundup
Issued by NWS

Home | Current Version | Previous Version | Text Only | Print | Product List | Glossary Off
Versions: 1 2 3 4 5 6 7 8 9 10 11 12 13 14 15 16 17 18 19 20 21 22 23 24 25 26 27 28 29 30 31 32 33 34 35 36 37 38 39 40 41 42 43 44 45 46 47 48 49 50

313
ASUS45 KTFX 091510
RWRMT
MONTANA REGIONAL WEATHER ROUNDUP
NATIONAL WEATHER SERVICE GREAT FALLS MT
800 AM MST TUE FEB 09 2016

NOTE: "FAIR" INDICATES FEW OR NO CLOUDS BELOW 12000 FEET WITH NO
SIGNIFICANT WEATHER AND/OR OBSTRUCTIONS TO VISIBILITY.

MTZ001>007-043-091600-
WEST OF THE DIVIDE

CITY           SKY/WX    TMP DP  RH WIND       PRES   REMARKS
KALISPELL      CLEAR     18  15  88 CALM      30.50F FOG
MISSOULA       MOCLDY    17  15  92 CALM      30.53F FOG
BUTTE          FOG       11   8  88 CALM      30.48F VSB<1/4
MULLAN PASS    CLEAR     37  29  72 S7        30.44F WCI  32
ANACONDA         N/A     27  25  93 CALM      30.47F
DEER LODGE       N/A     21  21 100 CALM      30.50R
HAMILTON         N/A     25  23  93 CALM      30.51R
LIBBY            N/A     18  16  93 CALM      30.55S VSB 1/4
PLAINS           N/A     24  20  85 CALM      30.49F VSB 0
THOMPSON FALLS   N/A     24  22  92 CALM      30.52F VSB 0
$$

MTZ008-052>055-091600-
SOUTHWEST MONTANA

CITY           SKY/WX    TMP DP  RH WIND       PRES   REMARKS
BOZEMAN        CLOUDY    20  18  92 S5        30.46S
DILLON         CLOUDY    27  21  78 SW8       30.47S WCI  19
ENNIS          CLEAR     28  23  80 S7        30.54R WCI  21
TWIN BRIDGES     N/A     22  15  74 SE6       30.41S WCI  15
$$

MTZ009-010-012-014-046-048-049-054-091600-
EAST SLOPES AND CENTRAL MONTANA

CITY           SKY/WX    TMP DP  RH WIND       PRES   REMARKS
CUT BANK       CLEAR     41  27  57 W12       30.27S
GREAT FALLS    CLOUDY    42  28  57 S16       30.30S
MALMSTROM AFB  CLEAR     38  29  69 SW16      30.30S WCI  29
HELENA         CLOUDY    29  26  89 VRB3      30.43S
CHOTEAU          N/A     43  21  42 SW10      30.30S
CONRAD           N/A     32  24  72 S2        30.26S
$$

MTZ011-013-016-021-045-047-050-051-091600-
NORTH CENTRAL MONTANA

CITY           SKY/WX    TMP DP  RH WIND       PRES   REMARKS
HAVRE          CLEAR     31  27  85 SW13      30.25S WCI  21
LEWISTOWN      CLEAR     36  23  59 W12       30.29F WCI  28
N BAR RANCH      N/A     45  23  42 NW14      30.28S
CHINOOK          N/A     23  21  93 CALM      30.25S
$$

MTZ017>020-022>027-061-062-091600-
NORTHEAST MONTANA

CITY           SKY/WX    TMP DP  RH WIND       PRES   REMARKS
GLASGOW        CLOUDY    30  26  85 SW5       30.22F
JORDAN           N/A     32  28  85 W9        30.24S WCI  24
SIDNEY         CLOUDY    34  25  69 NW8       30.23R WCI  27
WOLF POINT     CLOUDY    33  27  78 W7        30.24S WCI  27
MALTA            N/A    N/A N/A N/A MISG      30.18
PLENTYWOOD       N/A     30  25  80 NW10      30.19F WCI  21
POPLAR           N/A     30  27  86 W5        30.24S
SCOBEY           N/A     32  19  58 CALM      30.17S
$$

MTZ028>42-056>058-091600-
SOUTHCENTRAL AND SOUTHEAST MONTANA

CITY           SKY/WX    TMP DP  RH WIND       PRES   REMARKS
BAKER          CLOUDY    32  25  75 W8        30.21R WCI  25
BILLINGS       PTCLDY    33  21  61 SW18      30.30R WCI  22
LIVINGSTON     CLEAR     43  22  43 SW25G35   30.37F
MILES CITY     CLEAR     29  25  85 SW8       30.25S WCI  21
FORSYTH          N/A     34  28  80 W8        30.26S WCI  27
LAUREL           N/A     30  13  49 SW8       30.26F WCI  22
ROUNDUP          N/A     35  25  67 S1        30.16S
$$

REGIONAL REPORTS...DAKOTAS

CITY           SKY/WX    TMP DP  RH WIND       PRES   REMARKS
WILLISTON      CLOUDY    31  23  72 NW6       30.22R WCI  25
MINOT          CLOUDY    26   9  48 SW12      30.20F WCI  16
DICKINSON      CLOUDY    25  18  74 W3        30.16R
BEACH          CLOUDY    32  27  80 NW15      30.23R WCI  22
CROSBY         MOCLDY    25  25 100 NW9       30.22S WCI  15
TIOGA          CLOUDY    21  21 100 CALM      30.23S
WATFORD CITY     N/A     30  23  74 NW9       30.20S WCI  22
BISMARCK       CLOUDY    26  11  52 SW8       30.25F WCI  18
GRAND FORKS    CLOUDY    11   4  73 N14       30.30S WCI  -5
FARGO          CLOUDY    11   4  73 N12       30.28S WCI  -3
BUFFALO SD       N/A     33  26  75 W9        30.11F WCI  25
RAPID CITY     CLOUDY    27  19  72 N3        30.19F
$$

REGIONAL REPORTS...WYOMING/IDAHO/WASHINGTON

CITY           SKY/WX    TMP DP  RH WIND       PRES   REMARKS
GILLETTE       CLEAR     35  28  75 W8        30.27R WCI  29
SHERIDAN       CLEAR     40  28  62 W12       30.28F
BUFFALO WY     CLEAR     40  26  57 E3        30.28F
CODY           CLOUDY    27  18  69 SW3       30.35S
YELLOWSTONE LA   N/A     13  10  88 CALM      30.58R
IDAHO FALLS    FOG        8   4  83 N5        30.61S VSB 1/4
SALMON         CLOUDY     5   3  92 SE5       30.66S
BOISE          PTCLDY    27  23  85 S8        30.60S WCI  19
SPOKANE        PTCLDY    31  28  89 NE8       30.44F WCI  23
$$

REGIONAL REPORTS...ALBERTA

CITY           SKY/WX    TMP DP  RH WIND       PRES   REMARKS
EDMONTON       MOCLDY    36  27  69 SW8       30.10F WCI  29
CALGARY        PTCLDY    32  21  64 S6        30.19F WCI  26
LETHBRIDGE     PTCLDY    39  27  60 SW13      30.23F WCI  32
MEDICINE HAT   MOCLDY    30  28  93 SW9       30.21F WCI  22
WATERTON GATE    N/A     45  28  53 SW30G41     N/A
CARDSTON         N/A     34  23  64 SE8         N/A  WCI  27
ONEFOUR          N/A     36  27  69 NW18        N/A  WCI  25
$$

REGIONAL REPORTS...SASKATCHEWAN

CITY           SKY/WX    TMP DP  RH WIND       PRES   REMARKS
SWIFT CURRENT  CLOUDY    32  28  86 SW9       30.16F WCI  24
REGINA         CLOUDY    23  21  93 W3        30.21S
SASKATOON      FLURRIES  25  21  86 SE7       30.20F WCI  17
CYPRESS HILLS    N/A     39  21  48 NW8         N/A
VAL MARIE        N/A     23  21  93 SW3         N/A
ROCKGLEN         N/A     32  25  74 N5          N/A
ASSINIBOIA       N/A     36  28  75 SW10        N/A  WCI  28
$$




USA.gov is the U.S. government's official web portal to all federal, state and local government web resources and services.